Location: Roussillon
(43.9008°N, 5.2947°E)
Time: 07:17:09
(UTC+00:00)

UNK - Pass Details

Date: 07 June 2020
Orbit: 667 x 686 km, 98.1° (Epoch: 07 July)

Event Time Altitude Azimuth Distance (km) Brightness Sun altitude
Exits shadow 01:11:41 30° 152° (SSE) 1,187 4.7 -19.9°
Maximum altitude 01:13:52 72° 74° (ENE) 708 3.9 -19.8°
Drops below altitude 10° 01:18:27 10° 351° (N) 2,104 7.1 -19.4°
Sets 01:20:41 0° 349° (N) 3,020 8.0 -19.3°
